Pagrindinis puslapis
METAR-TAF:

METAR-TAF

Oro uostai :

Noatak, Aliaska, Jungtinės Amerikos Valstijos

platuma: 67-34N, ilguma: 162-59W, Aukštis: 27 m

Dabartinis oras

Ataskaita buvo paskelbta 23 minutes, ne 09:56 UTC
Vėjas 6 kt iš Šiaurės/Šiaurės Vakarų
Temperatūra -24°C
Drėgmė 76%
Slėgis 1021 hPa
Matomumas: 16.1 km
Giedras dangus

METAR: PAWN 260956Z AUTO 33006KT 10SM CLR M24/M27 A3015 RMK AO2 SLP226 T12441272 FZRANO

Laikas: 01:19 (10:19 UTC)


TAF: trūkstamas

Orai ataskaitas ir orų prognozės (METAR, TAF).

turimą stotys yra geltonos ir raudonos taškus žemėlapyje.

Perkelti pele per norėdami pamatyti stoties vardą.

Tada spustelėkite, norėdami matyti oro stebėjimo ir prognozės.

Norėdami pakeisti žemėlapį: spustelėkite ant žalios mygtukų su juodo kryžiaus žemyn,; žalią mygtuką su brūkšneliu, jei norite nutolinti; arba žalių rodyklių gretimoms žemėlapius.


METAR-TAF: